This is the latest recevied weather packets stored in our database for station/object N5XJB. If no packets are shown the sender has not sent any weather packets the latest 10 day(s).
| Time | Temp. | Humidity | Pressure | Rain* | Wind** | Luminosity | Snow |
|---|---|---|---|---|---|---|---|
| 1777680605 | 15° C | 98% | 1013.1 hPa | 0.25 mm | - | 26 W/m² | - |
| 1777680303 | 15° C | 98% | 1013.4 hPa | 0 mm | - | 23 W/m² | - |
| 1777679999 | 15° C | 98% | 1013.7 hPa | 4.57 mm | - | 21 W/m² | - |
| 1777679695 | 15° C | 98% | 1013.7 hPa | 4.32 mm | - | 15 W/m² | - |
| 1777679390 | 15° C | 98% | 1013.7 hPa | 3.56 mm | - | 14 W/m² | - |
| 1777679087 | 15° C | 98% | 1012.4 hPa | 3.56 mm | - | 16 W/m² | - |
| 1777678786 | 15° C | 98% | 1012.4 hPa | 3.56 mm | - | 42 W/m² | - |
| 1777678483 | 15° C | 98% | 1012.1 hPa | 3.56 mm | - | 6 W/m² | - |
| 1777678179 | 15° C | 98% | 1012.4 hPa | 3.56 mm | - | 8 W/m² | - |
| 1777677876 | 15° C | 98% | 1012.1 hPa | 3.56 mm | - | 11 W/m² | - |
| 1777677573 | 15.56° C | 98% | 1011.4 hPa | 3.56 mm | - | 30 W/m² | - |
| 1777677272 | 15° C | 98% | 1012.4 hPa | 3.05 mm | - | 68 W/m² | - |
| 1777676969 | 15.56° C | 98% | 1012.4 hPa | 1.78 mm | - | 101 W/m² | - |
| 1777676668 | 15.56° C | 98% | 1013.7 hPa | 0 mm | - | 80 W/m² | - |
| 1777676365 | 15.56° C | 97% | 1012.4 hPa | 0.25 mm | - | 4 W/m² | - |
| 1777676063 | 15.56° C | 97% | 1011.4 hPa | 0 mm | - | 17 W/m² | - |
| 1777675758 | 15.56° C | 98% | 1012.1 hPa | 0 mm | - | 39 W/m² | - |
| 1777675456 | 15.56° C | 98% | 1011.7 hPa | 0 mm | - | 19 W/m² | - |
| 1777675152 | 15.56° C | 98% | 1011 hPa | 0 mm | - | 20 W/m² | - |
| 1777674849 | 15.56° C | 98% | 1011.4 hPa | 0 mm | - | 41 W/m² | - |
| 1777674545 | 15.56° C | 98% | 1011.4 hPa | 0 mm | - | 37 W/m² | - |
| 1777674243 | 15.56° C | 98% | 1011 hPa | 0 mm | - | 74 W/m² | - |
| 1777673939 | 15.56° C | 98% | 1011 hPa | 0 mm | - | 69 W/m² | - |
| 1777673636 | 15.56° C | 98% | 1011.4 hPa | 0 mm | - | 92 W/m² | - |
| 1777673334 | 16.11° C | 98% | 1011.7 hPa | 0 mm | - | 51 W/m² | - |
* Rain latest hour (hover to see other rain measurements)
** Current wind speed in m/s (hover to see current wind gust speed)